20050419,000018,377851,30.230607,-123.889520,4.9,16.943,33.231,42.811,1019.86,0.0,0.708,16.282,16.249, NaN,24.171,   NaN,14.24,1019.67,73.79,14.52,17.9,20.4,15.6,16.7,355.3,357.8,11.2,12.4,NaN, NaN,21.8,327.4,330.4,1113868820,1113868820,1,9.4,000019,000020,329.2,30.230523,-123.889538,9.18,NaN,NaN,16.947, NaN,NaN,NaN, NaN, NaN
20050419,000048,377881,30.231775,-123.890298,5.2,16.945,33.227,42.808,1170.25,0.0,0.708,16.283,16.249, NaN,24.167,   NaN,14.32,1019.40,73.79,14.64,22.1,21.9,15.6,16.6,0.6,359.6,11.2,12.3,NaN, NaN,22.2,321.0,328.4,1113868850,1113868850,1,9.5,000049,000050,329.2,30.231690,-123.890325,9.88,NaN,NaN,16.949, NaN,NaN,NaN, NaN, NaN
20050419,000118,377911,30.232913,-123.891073,4.7,16.944,33.233,42.813,857.68,0.0,0.708,16.283,16.250, NaN,24.171,   NaN,14.21,1019.57,73.19,14.57,20.5,21.4,16.2,17.4,358.2,358.6,11.7,13.0,NaN, NaN,24.7,324.8,326.5,1113868880,1113868880,1,9.9,000079,000080,329.1,30.232830,-123.891100,9.44,NaN,NaN,16.948, NaN,NaN,NaN, NaN, NaN
20050419,000148,377941,30.234005,-123.891835,4.8,16.941,33.230,42.808,771.60,0.0,0.708,16.284,16.251, NaN,24.170,   NaN,14.21,1019.56,73.32,14.56,21.0,22.5,15.8,17.2,358.9,0.1,11.5,12.9,NaN, NaN,22.9,328.3,327.3,1113868910,1113868910,1,9.4,000109,000110,329.6,30.233925,-123.891856,9.43,NaN,NaN,16.945, NaN,NaN,NaN, NaN, NaN
20050419,000218,377971,30.235150,-123.892593,5.0,16.947,33.225,42.808,764.91,0.0,0.708,16.283,16.250, NaN,24.165,   NaN,14.18,1019.49,73.05,14.55,24.0,23.8,15.5,16.8,3.7,2.4,11.3,12.6,NaN, NaN,24.4,322.9,327.7,1113868940,1113868940,1,8.6,000139,000140,329.1,30.235058,-123.892613,9.43,NaN,NaN,16.951, NaN,NaN,NaN, NaN, NaN
20050419,000248,378001,30.236253,-123.893340,4.8,16.941,33.230,42.808,788.87,0.0,0.708,16.283,16.251, NaN,24.170,   NaN,14.08,1019.68,72.08,14.45,23.6,23.4,15.6,16.8,3.0,1.7,11.4,12.6,NaN, NaN,24.1,321.3,330.2,1113868970,1113868969,1,9.2,000169,000169,328.7,30.236137,-123.893336,9.48,NaN,NaN,16.945, NaN,NaN,NaN, NaN, NaN
20050419,000318,378031,30.237360,-123.894093,5.3,16.941,33.231,42.808,815.78,0.0,0.708,16.284,16.252, NaN,24.171,   NaN,14.06,1019.40,71.39,14.37,22.7,22.8,14.8,16.0,2.1,1.2,10.6,11.8,NaN, NaN,22.0,330.6,330.2,1113869000,1113869000,1,9.3,000199,000200,330.3,30.237263,-123.894113,9.18,NaN,NaN,16.945, NaN,NaN,NaN, NaN, NaN
20050419,000348,378061,30.238475,-123.894871,4.9,16.941,33.231,42.808,1018.26,0.0,0.708,16.285,16.253, NaN,24.171,   NaN,14.18,1019.58,71.42,14.50,22.3,22.6,14.2,15.7,2.4,1.3,9.9,11.4,NaN, NaN,21.6,338.6,334.2,1113869030,1113869030,1,9.7,000229,000230,330.9,30.238388,-123.894888,9.12,NaN,NaN,16.945, NaN,NaN,NaN, NaN, NaN
20050419,000419,378092,30.239587,-123.895625,5.0,16.940,33.231,42.807,979.45,0.0,0.708,16.290,16.253, NaN,24.171,   NaN,14.20,1019.46,71.10,14.53,22.1,21.6,14.8,16.3,1.8,359.9,10.6,12.0,NaN, NaN,23.2,345.3,334.9,1113869060,1113869060,1,9.5,000259,000260,330.2,30.239495,-123.895635,9.65,NaN,NaN,16.944, NaN,NaN,NaN, NaN, NaN
20050419,000448,378121,30.240723,-123.896351,4.8,16.942,33.228,42.806,1033.68,0.0,0.708,16.287,16.253, NaN,24.168,   NaN,14.19,1019.69,71.31,14.53,20.9,19.8,14.9,16.2,359.9,357.5,10.5,11.8,NaN, NaN,23.1,338.4,338.5,1113869090,1113869090,1,9.0,000289,000290,328.4,30.240643,-123.896370,9.69,NaN,NaN,16.946, NaN,NaN,NaN, NaN, NaN
20050419,000519,378152,30.241813,-123.897120,5.1,16.945,33.226,42.807,1788.69,0.0,0.708,16.288,16.254, NaN,24.166,   NaN,14.11,1019.54,71.02,14.52,20.7,20.6,14.4,15.6,359.7,358.6,10.1,11.2,NaN, NaN,22.0,332.3,327.9,1113869120,1113869120,1,9.2,000319,000320,328.6,30.241727,-123.897133,9.04,NaN,NaN,16.949, NaN,NaN,NaN, NaN, NaN
20050419,000548,378181,30.242927,-123.897881,5.0,16.945,33.228,42.808,1169.01,0.0,0.689,16.287,16.253, NaN,24.167,   NaN,14.17,1019.57,71.54,14.53,22.4,22.7,13.9,15.1,2.5,1.7,9.8,11.0,NaN, NaN,22.3,321.6,327.7,1113869150,1113869149,1,8.9,000349,000349,329.6,30.242793,-123.897885,9.26,NaN,NaN,16.949, NaN,NaN,NaN, NaN, NaN
20050419,000618,378211,30.243980,-123.898603,5.1,16.943,33.228,42.807,2030.81,0.0,0.708,16.288,16.253, NaN,24.168,   NaN,14.22,1019.36,71.49,14.61,23.5,23.2,14.5,15.7,4.1,2.5,10.4,11.6,NaN, NaN,22.0,322.3,330.1,1113869180,1113869180,1,8.9,000379,000380,331.1,30.243880,-123.898633,8.85,NaN,NaN,16.947, NaN,NaN,NaN, NaN, NaN
20050419,000649,378242,30.245078,-123.899358,4.8,16.943,33.229,42.808,1194.90,0.0,0.708,16.287,16.253, NaN,24.169,   NaN,14.15,1019.50,71.26,14.51,23.9,23.9,15.5,16.6,3.5,2.6,11.5,12.6,NaN, NaN,22.1,329.7,330.7,1113869210,1113869210,1,9.1,000409,000410,329.9,30.244985,-123.899378,8.43,NaN,NaN,16.947, NaN,NaN,NaN, NaN, NaN
20050419,000718,378271,30.246245,-123.900148,5.0,16.947,33.226,42.808,1088.92,0.0,0.727,16.292,16.255, NaN,24.165,   NaN,14.27,1019.41,72.30,14.60,25.0,23.8,15.0,16.1,5.5,2.9,10.8,11.9,NaN, NaN,22.6,344.6,333.7,1113869240,1113869240,1,9.5,000439,000440,330.6,30.246153,-123.900165,9.74,NaN,NaN,16.951, NaN,NaN,NaN, NaN, NaN
20050419,000748,378301,30.247425,-123.900973,5.1,16.945,33.228,42.809,1088.77,0.0,0.708,16.290,16.255, NaN,24.167,   NaN,14.24,1019.21,72.04,14.63,21.5,21.1,15.3,16.5,0.9,359.4,10.8,11.9,NaN, NaN,22.3,335.9,320.1,1113869270,1113869269,1,10.3,000469,000469,328.9,30.247280,-123.900961,9.89,NaN,NaN,16.949, NaN,NaN,NaN, NaN, NaN
20050419,000819,378332,30.248533,-123.901693,5.2,16.945,33.228,42.809,1133.89,0.0,0.708,16.291,16.255, NaN,24.167,   NaN,14.15,1019.17,71.16,14.47,14.5,16.4,16.0,16.8,350.9,353.0,11.3,12.2,NaN, NaN,22.7,330.1,330.6,1113869300,1113869300,1,8.5,000499,000500,328.8,30.248435,-123.901711,9.61,NaN,NaN,16.949, NaN,NaN,NaN, NaN, NaN
20050419,000848,378361,30.249600,-123.902428,4.9,16.947,33.230,42.813,1041.35,0.0,0.708,16.290,16.255, NaN,24.169,   NaN,14.20,1019.48,70.82,14.51,15.1,15.6,15.6,16.3,351.7,351.9,11.1,11.8,NaN, NaN,22.6,318.5,326.8,1113869330,1113869330,1,9.0,000529,000530,330.0,30.249503,-123.902451,8.95,NaN,NaN,16.951, NaN,NaN,NaN, NaN, NaN
20050419,000918,378391,30.250723,-123.903191,5.1,16.943,33.232,42.811,985.90,0.0,0.708,16.292,16.256, NaN,24.171,   NaN,14.20,1019.31,70.41,14.53,18.8,17.3,15.7,16.5,355.8,353.2,11.3,12.0,NaN, NaN,21.2,331.7,330.7,1113869360,1113869360,1,10.3,000559,000560,328.4,30.250637,-123.903210,9.32,NaN,NaN,16.947, NaN,NaN,NaN, NaN, NaN
20050419,000948,378421,30.251862,-123.903948,5.0,16.941,33.232,42.810,990.26,0.0,0.708,16.292,16.257, NaN,24.172,   NaN,14.20,1019.45,70.16,14.54,19.7,18.6,15.4,16.5,357.4,355.2,11.0,12.0,NaN, NaN,23.9,324.7,330.0,1113869390,1113869390,1,9.8,000589,000590,329.7,30.251775,-123.903976,9.76,NaN,NaN,16.945, NaN,NaN,NaN, NaN, NaN
20050419,001018,378451,30.253008,-123.904725,5.1,16.942,33.233,42.811,1042.98,0.0,0.708,16.287,16.254, NaN,24.172,   NaN,14.12,1019.37,69.65,14.47,18.5,19.8,14.9,16.2,356.6,357.4,10.4,11.7,NaN, NaN,22.9,334.4,332.8,1113869420,1113869420,1,10.3,000619,000620,329.0,30.252917,-123.904750,9.54,NaN,NaN,16.946, NaN,NaN,NaN, NaN, NaN
20050419,001048,378481,30.254150,-123.905500,4.6,16.946,33.228,42.810,1126.31,0.0,0.708,16.284,16.253, NaN,24.167,   NaN,14.17,1019.78,70.12,14.51,16.6,19.6,14.8,16.0,353.9,357.2,10.3,11.6,NaN, NaN,23.0,332.1,329.5,1113869450,1113869450,1,8.8,000649,000650,329.1,30.254050,-123.905526,9.15,NaN,NaN,16.950, NaN,NaN,NaN, NaN, NaN
20050419,001118,378511,30.255312,-123.906283,5.1,16.944,33.229,42.809,1384.16,0.0,0.708,16.284,16.253, NaN,24.169,   NaN,14.30,1019.21,71.19,14.65,14.2,16.4,14.5,15.7,350.9,353.1,9.9,11.1,NaN, NaN,21.5,341.2,334.8,1113869480,1113869480,1,9.3,000679,000680,329.1,30.255213,-123.906296,9.48,NaN,NaN,16.948, NaN,NaN,NaN, NaN, NaN
20050419,001149,378542,30.256490,-123.907041,5.1,16.939,33.232,42.808,1953.80,0.0,0.708,16.284,16.256, NaN,24.172,   NaN,14.26,1019.13,70.90,14.65,11.1,13.0,15.1,15.7,346.4,348.8,10.3,10.9,NaN, NaN,21.6,345.5,337.1,1113869510,1113869510,1,10.2,000709,000710,329.2,30.256388,-123.907066,9.62,NaN,NaN,16.943, NaN,NaN,NaN, NaN, NaN
20050419,001219,378573,30.257638,-123.907811,4.8,16.937,33.235,42.809,1528.80,0.0,0.708,16.284,16.253, NaN,24.175,   NaN,14.25,1019.47,70.50,14.58,8.3,10.4,16.5,16.9,341.5,344.4,11.6,12.0,NaN, NaN,22.5,333.5,332.4,1113869540,1113869540,1,10.0,000739,000740,328.9,30.257553,-123.907831,9.55,NaN,NaN,16.941, NaN,NaN,NaN, NaN, NaN
20050419,001248,378601,30.258810,-123.908603,5.1,16.941,33.230,42.807,1216.34,0.0,0.708,16.285,16.253, NaN,24.170,   NaN,14.19,1019.41,70.13,14.50,9.9,11.9,16.9,17.3,343.1,345.8,12.0,12.4,NaN, NaN,23.2,321.0,331.7,1113869570,1113869569,1,9.1,000769,000769,329.7,30.258685,-123.908593,9.84,NaN,NaN,16.945, NaN,NaN,NaN, NaN, NaN
20050419,001318,378631,30.259940,-123.909353,5.1,16.938,33.233,42.808,1736.70,0.0,0.708,16.284,16.252, NaN,24.173,   NaN,14.22,1019.23,70.35,14.54,12.8,13.2,16.5,16.8,347.4,347.8,11.8,12.1,NaN, NaN,21.5,324.8,325.2,1113869600,1113869600,1,9.6,000799,000800,328.7,30.259847,-123.909376,9.27,NaN,NaN,16.942, NaN,NaN,NaN, NaN, NaN
20050419,001348,378661,30.261068,-123.910106,4.7,16.934,33.232,42.803,1305.26,0.0,0.708,16.279,16.246, NaN,24.173,   NaN,14.31,1019.55,70.65,14.65,12.7,12.3,16.1,16.3,347.4,346.8,11.4,11.6,NaN, NaN,21.0,335.3,331.7,1113869630,1113869630,1,10.0,000829,000830,329.7,30.260977,-123.910136,9.26,NaN,NaN,16.938, NaN,NaN,NaN, NaN, NaN
20050419,001418,378691,30.262193,-123.910878,5.1,16.933,33.233,42.803,1163.95,0.0,0.727,16.279,16.245, NaN,24.174,   NaN,14.24,1019.30,70.79,14.57,10.4,12.0,15.3,15.6,344.6,346.9,10.6,10.9,NaN, NaN,22.2,324.8,322.5,1113869660,1113869660,1,10.1,000859,000860,329.7,30.262095,-123.910901,9.09,NaN,NaN,16.937, NaN,NaN,NaN, NaN, NaN
20050419,001448,378721,30.263320,-123.911591,4.6,16.934,33.232,42.803,1146.11,0.0,0.708,16.276,16.243, NaN,24.173,   NaN,14.32,1019.78,71.40,14.64,11.4,12.1,15.1,15.3,345.9,346.8,10.5,10.7,NaN, NaN,23.6,311.5,319.1,1113869690,1113869690,1,8.6,000889,000890,328.6,30.263212,-123.911633,8.71,NaN,NaN,16.938, NaN,NaN,NaN, NaN, NaN
20050419,001518,378751,30.264410,-123.912311,5.0,16.934,33.229,42.800,1312.23,0.0,0.708,16.275,16.242, NaN,24.171,   NaN,14.29,1019.22,71.45,14.66,11.9,12.7,15.5,16.0,346.6,347.4,11.0,11.5,NaN, NaN,21.5,340.1,336.0,1113869720,1113869720,1,10.2,000919,000920,329.7,30.264322,-123.912340,9.21,NaN,NaN,16.938, NaN,NaN,NaN, NaN, NaN
20050419,001548,378781,30.265450,-123.913128,5.4,16.932,33.230,42.799,2143.29,0.0,0.727,16.273,16.240, NaN,24.172,   NaN,14.18,1019.03,70.42,14.53,14.2,15.2,15.6,16.2,349.4,350.4,11.1,11.8,NaN, NaN,23.5,311.5,312.9,1113869750,1113869750,1,9.1,000949,000950,329.4,30.265375,-123.913126,9.82,NaN,NaN,16.936, NaN,NaN,NaN, NaN, NaN
20050419,001618,378811,30.266570,-123.913805,4.8,16.932,33.229,42.798,1380.88,0.0,0.727,16.273,16.239, NaN,24.171,   NaN,14.28,1019.42,70.70,14.60,15.7,16.1,15.0,15.6,351.8,351.9,10.5,11.2,NaN, NaN,12.2,346.7,336.7,1113869780,1113869780,1,9.2,000979,000980,328.2,30.266480,-123.913803,9.10,NaN,NaN,16.936, NaN,NaN,NaN, NaN, NaN
20050419,001648,378841,30.267678,-123.914568,5.1,16.934,33.227,42.798,1125.99,0.0,0.727,16.270,16.238, NaN,24.169,   NaN,14.32,1019.36,71.41,14.68,16.2,16.4,14.6,15.5,353.4,353.1,10.3,11.1,NaN, NaN,13.2,332.6,327.5,1113869810,1113869810,1,8.8,001009,001010,329.8,30.267578,-123.914565,9.46,NaN,NaN,16.938, NaN,NaN,NaN, NaN, NaN
20050419,001718,378871,30.268828,-123.915313,5.2,16.933,33.225,42.793,1326.25,0.0,0.708,16.273,16.239, NaN,24.168,   NaN,14.29,1019.31,71.76,14.66,15.5,16.1,14.8,15.6,352.2,352.5,10.2,11.1,NaN, NaN,13.4,333.6,329.8,1113869840,1113869839,1,9.4,001039,001039,330.2,30.268700,-123.915293,9.47,NaN,NaN,16.937, NaN,NaN,NaN, NaN, NaN
20050419,001748,378901,30.269990,-123.916063,4.8,16.934,33.225,42.795,1619.50,0.0,0.708,16.275,16.241, NaN,24.168,   NaN,14.21,1019.68,71.32,14.59,13.6,14.7,15.3,16.0,349.1,350.4,10.7,11.4,NaN, NaN,13.1,327.6,332.4,1113869870,1113869870,1,9.6,001069,001070,329.9,30.269900,-123.916066,9.44,NaN,NaN,16.938, NaN,NaN,NaN, NaN, NaN
20050419,001819,378932,30.271150,-123.916830,4.7,16.934,33.226,42.795,1219.12,0.0,0.727,16.274,16.239, NaN,24.169,   NaN,14.24,1019.33,71.24,14.58,15.8,17.3,15.9,16.7,351.3,352.8,11.3,12.2,NaN, NaN,13.2,327.8,327.0,1113869900,1113869900,1,9.2,001100,001100,328.7,30.271018,-123.916805,9.08,NaN,NaN,16.938, NaN,NaN,NaN, NaN, NaN
20050419,001848,378961,30.272210,-123.917533,5.0,16.935,33.221,42.791,891.76,0.0,0.727,16.270,16.238, NaN,24.165,   NaN,14.19,1019.44,70.97,14.55,20.6,22.5,15.0,16.1,359.1,0.6,10.6,11.8,NaN, NaN,12.8,331.8,332.4,1113869930,1113869930,1,10.1,001129,001130,330.4,30.272120,-123.917541,9.25,NaN,NaN,16.939, NaN,NaN,NaN, NaN, NaN
20050419,001918,378991,30.273298,-123.918263,4.4,16.931,33.226,42.792,911.85,0.0,0.708,16.272,16.239, NaN,24.169,   NaN,14.16,1019.65,70.63,14.52,20.4,23.2,14.5,15.7,358.6,1.5,10.3,11.5,NaN, NaN,14.4,322.2,326.9,1113869960,1113869960,1,9.0,001159,001160,327.4,30.273212,-123.918265,9.03,NaN,NaN,16.935, NaN,NaN,NaN, NaN, NaN
20050419,001948,379021,30.274380,-123.918988,5.0,16.931,33.225,42.792,1119.72,0.0,0.708,16.272,16.239, NaN,24.168,   NaN,14.16,1019.20,70.28,14.51,22.4,23.7,14.9,16.0,1.4,2.2,10.8,11.9,NaN, NaN,13.4,318.1,320.9,1113869990,1113869990,1,9.5,001189,001190,330.4,30.274282,-123.918993,8.52,NaN,NaN,16.935, NaN,NaN,NaN, NaN, NaN
20050419,002019,379052,30.275507,-123.919711,4.9,16.932,33.224,42.791,2304.81,0.0,0.708,16.271,16.239, NaN,24.167,   NaN,14.18,1019.40,69.28,14.53,25.6,25.5,14.6,15.7,6.6,5.3,10.5,11.7,NaN, NaN,12.5,330.7,331.7,1113870020,1113870020,1,9.1,001219,001220,329.4,30.275413,-123.919715,9.50,NaN,NaN,16.936, NaN,NaN,NaN, NaN, NaN
20050419,002049,379082,30.276670,-123.920485,5.1,16.931,33.222,42.789,2346.52,0.0,0.708,16.272,16.239, NaN,24.166,   NaN,14.30,1019.38,69.09,14.63,24.3,24.8,14.2,15.3,5.8,5.3,9.9,11.1,NaN, NaN,12.8,341.6,331.9,1113870050,1113870050,1,9.2,001249,001250,330.6,30.276575,-123.920478,9.67,NaN,NaN,16.935, NaN,NaN,NaN, NaN, NaN
20050419,002119,379112,30.277843,-123.921223,4.7,16.931,33.221,42.788,1909.40,0.0,0.727,16.277,16.244, NaN,24.166,   NaN,14.42,1019.56,69.56,14.77,20.8,21.8,14.2,15.5,0.6,0.7,9.7,11.1,NaN, NaN,13.0,321.2,324.9,1113870080,1113870080,1,10.0,001279,001280,330.2,30.277748,-123.921235,9.74,NaN,NaN,16.935, NaN,NaN,NaN, NaN, NaN
20050419,002148,379141,30.278940,-123.921963,5.2,16.933,33.220,42.788,967.82,0.0,0.708,16.283,16.251, NaN,24.164,   NaN,14.41,1019.25,70.43,14.75,16.0,15.9,13.9,15.0,353.7,352.6,9.4,10.3,NaN, NaN,13.0,339.4,329.0,1113870110,1113870109,1,9.6,001309,001309,332.4,30.278817,-123.921946,9.99,NaN,NaN,16.937, NaN,NaN,NaN, NaN, NaN
20050419,002218,379171,30.280087,-123.922653,4.9,16.927,33.224,42.787,1318.02,0.0,0.708,16.288,16.257, NaN,24.169,   NaN,14.28,1019.52,70.42,14.65,15.6,15.3,14.1,14.6,352.6,351.7,9.6,10.1,NaN, NaN,12.7,331.3,331.9,1113870140,1113870140,1,10.5,001339,001340,328.9,30.279995,-123.922655,9.58,NaN,NaN,16.931, NaN,NaN,NaN, NaN, NaN
20050419,002249,379202,30.281197,-123.923423,5.2,16.922,33.226,42.785,871.18,0.0,0.727,16.292,16.259, NaN,24.171,   NaN,14.20,1019.42,70.31,14.59,18.9,19.5,14.5,15.1,357.0,357.3,10.1,10.8,NaN, NaN,14.7,331.9,331.7,1113870170,1113870170,1,9.2,001369,001370,329.2,30.281107,-123.923415,9.64,NaN,NaN,16.926, NaN,NaN,NaN, NaN, NaN
20050419,002318,379231,30.282375,-123.924156,5.0,16.925,33.224,42.785,854.29,0.0,0.708,16.297,16.266, NaN,24.169,   NaN,14.07,1019.54,69.48,14.44,22.0,21.4,14.1,15.1,1.8,360.0,9.7,10.6,NaN, NaN,12.6,340.4,337.5,1113870200,1113870200,1,9.8,001399,001400,328.9,30.282290,-123.924146,9.56,NaN,NaN,16.929, NaN,NaN,NaN, NaN, NaN
20050419,002349,379262,30.283547,-123.924923,4.9,16.928,33.221,42.784,1033.01,0.0,0.708,16.307,16.275, NaN,24.166,   NaN,14.09,1019.49,69.41,14.46,21.0,21.2,13.7,14.8,1.1,0.3,9.2,10.3,NaN, NaN,13.9,322.9,329.0,1113870230,1113870230,1,9.8,001429,001430,329.7,30.283455,-123.924928,9.57,NaN,NaN,16.932, NaN,NaN,NaN, NaN, NaN
20050419,002419,379292,30.284773,-123.925705,4.9,16.934,33.216,42.784,2074.66,0.0,0.708,16.314,16.283, NaN,24.161,   NaN,14.15,1019.52,69.29,14.53,18.1,20.6,13.4,14.6,356.9,359.4,8.7,10.0,NaN, NaN,13.7,325.4,331.4,1113870261,1113870261,1,9.0,001460,001461,329.1,30.284680,-123.925698,9.86,NaN,NaN,16.938, NaN,NaN,NaN, NaN, NaN
20050419,002448,379321,30.285877,-123.926450,5.0,16.936,33.213,42.783,2281.95,0.0,0.727,16.323,16.293, NaN,24.158,   NaN,14.27,1019.64,69.44,14.63,20.1,20.1,13.6,14.7,359.3,358.1,9.1,10.2,NaN, NaN,13.5,335.7,329.4,1113870290,1113870290,1,9.2,001489,001490,329.6,30.285782,-123.926445,9.38,NaN,NaN,16.940, NaN,NaN,NaN, NaN, NaN
20050419,002518,379351,30.286998,-123.927178,5.0,16.939,33.212,42.785,2409.29,0.0,0.727,16.330,16.302, NaN,24.157,   NaN,14.32,1019.34,69.21,14.69,22.1,20.2,14.4,15.5,1.7,358.1,10.1,11.1,NaN, NaN,14.2,327.1,328.7,1113870320,1113870320,1,9.5,001519,001520,329.4,30.286908,-123.927173,9.38,NaN,NaN,16.943, NaN,NaN,NaN, NaN, NaN
20050419,002549,379382,30.288160,-123.927931,4.9,16.947,33.206,42.785,2338.05,0.0,0.708,16.345,16.316, NaN,24.150,   NaN,14.31,1019.40,68.91,14.65,20.9,20.1,16.0,17.0,358.6,356.9,11.6,12.5,NaN, NaN,13.4,334.5,334.0,1113870350,1113870350,1,10.0,001549,001550,329.7,30.288073,-123.927938,10.17,NaN,NaN,16.951, NaN,NaN,NaN, NaN, NaN
20050419,002619,379412,30.289352,-123.928710,4.8,16.954,33.202,42.787,1758.09,0.0,0.708,16.367,16.335, NaN,24.146,   NaN,14.26,1019.45,68.29,14.60,18.9,20.4,16.1,17.2,355.7,357.1,11.6,12.7,NaN, NaN,12.7,308.0,319.7,1113870381,1113870381,1,9.5,001580,001581,329.3,30.289253,-123.928725,9.46,NaN,NaN,16.958, NaN,NaN,NaN, NaN, NaN
20050419,002648,379441,30.290433,-123.929416,4.9,16.961,33.203,42.795,1062.18,0.0,0.708,16.377,16.346, NaN,24.145,   NaN,14.19,1019.51,68.44,14.55,20.1,21.8,15.0,16.1,358.5,359.9,10.7,11.8,NaN, NaN,13.5,332.2,329.0,1113870410,1113870410,1,9.3,001609,001610,329.9,30.290332,-123.929416,8.94,NaN,NaN,16.965, NaN,NaN,NaN, NaN, NaN
20050419,002718,379471,30.291583,-123.930138,5.0,16.971,33.198,42.799,1258.27,0.0,0.727,16.380,16.348, NaN,24.138,   NaN,14.15,1019.66,68.58,14.53,20.0,20.5,14.2,15.0,358.7,358.7,9.8,10.6,NaN, NaN,13.7,331.5,331.9,1113870440,1113870440,1,9.1,001639,001640,328.6,30.291492,-123.930128,9.59,NaN,NaN,16.975, NaN,NaN,NaN, NaN, NaN
20050419,002749,379502,30.292738,-123.930915,4.7,16.977,33.200,42.807,849.94,0.0,0.708,16.382,16.349, NaN,24.138,   NaN,14.14,1019.78,68.83,14.53,18.5,18.0,13.6,14.5,356.5,354.9,9.2,10.1,NaN, NaN,14.3,329.8,333.2,1113870471,1113870470,1,9.3,001670,001670,329.5,30.292610,-123.930886,8.59,NaN,NaN,16.981, NaN,NaN,NaN, NaN, NaN
20050419,002818,379531,30.293825,-123.931573,5.1,16.986,33.199,42.814,883.77,0.0,0.708,16.379,16.346, NaN,24.135,   NaN,14.14,1019.25,69.15,14.51,17.3,17.9,13.7,14.7,355.3,355.3,9.2,10.2,NaN, NaN,12.7,323.4,330.1,1113870500,1113870500,1,9.2,001699,001700,329.4,30.293722,-123.931575,9.35,NaN,NaN,16.990, NaN,NaN,NaN, NaN, NaN
20050419,002848,379561,30.294980,-123.932350,5.2,17.005,33.190,42.822,1648.22,0.0,0.727,16.379,16.347, NaN,24.124,   NaN,14.19,1019.44,69.43,14.60,19.8,20.4,13.9,15.0,359.0,358.9,9.5,10.5,NaN, NaN,10.8,356.8,341.8,1113870530,1113870530,1,9.5,001729,001730,329.4,30.294880,-123.932340,9.79,NaN,NaN,17.009, NaN,NaN,NaN, NaN, NaN
20050419,002919,379592,30.296087,-123.933090,5.3,17.015,33.193,42.835,2140.21,0.0,0.708,16.379,16.348, NaN,24.124,   NaN,14.31,1019.24,69.56,14.66,24.9,22.5,14.7,15.7,5.1,0.9,10.4,11.3,NaN, NaN,12.3,343.2,335.4,1113870560,1113870560,1,9.3,001759,001760,329.2,30.295982,-123.933081,9.21,NaN,NaN,17.019, NaN,NaN,NaN, NaN, NaN
20050419,002949,379622,30.297192,-123.933848,4.7,17.023,33.195,42.844,2060.52,0.0,0.708,16.379,16.348, NaN,24.124,   NaN,14.32,1019.59,69.20,14.65,22.1,21.1,15.1,16.3,0.9,358.7,10.9,12.0,NaN, NaN,13.7,334.2,328.0,1113870591,1113870591,1,8.8,001790,001791,329.2,30.297098,-123.933835,7.72,NaN,NaN,17.027, NaN,NaN,NaN, NaN, NaN
20050419,003019,379652,30.298323,-123.934553,5.2,17.024,33.205,42.858,2042.78,0.0,0.708,16.377,16.346, NaN,24.132,   NaN,14.25,1019.50,68.60,14.61,20.0,21.4,15.0,16.3,358.1,359.1,10.7,12.0,NaN, NaN,13.4,332.6,333.3,1113870621,1113870621,1,8.8,001820,001821,329.6,30.298222,-123.934545,9.61,NaN,NaN,17.028, NaN,NaN,NaN, NaN, NaN
20050419,003048,379681,30.299393,-123.935276,4.9,17.024,33.217,42.871,1564.11,0.0,0.708,16.378,16.347, NaN,24.140,   NaN,14.20,1019.46,68.45,14.57,20.9,22.2,14.6,15.6,359.6,0.6,10.3,11.4,NaN, NaN,14.1,339.3,331.3,1113870650,1113870650,1,8.8,001849,001850,329.7,30.299293,-123.935263,9.53,NaN,NaN,17.028, NaN,NaN,NaN, NaN, NaN
20050419,003119,379712,30.300560,-123.936015,4.9,17.023,33.225,42.879,2156.85,0.0,0.708,16.383,16.350, NaN,24.147,   NaN,14.31,1019.60,68.87,14.68,21.0,21.6,14.2,15.2,0.3,0.1,9.8,10.9,NaN, NaN,13.4,337.6,333.9,1113870680,1113870680,1,9.2,001879,001880,329.4,30.300463,-123.936003,9.78,NaN,NaN,17.027, NaN,NaN,NaN, NaN, NaN
20050419,003149,379742,30.301752,-123.936815,5.1,17.030,33.231,42.893,2039.95,0.0,0.708,16.389,16.358, NaN,24.149,   NaN,14.28,1019.53,68.32,14.68,19.6,19.9,14.3,15.3,358.6,358.0,9.8,10.8,NaN, NaN,13.8,325.4,324.1,1113870711,1113870711,1,10.3,001910,001911,330.2,30.301657,-123.936818,9.73,NaN,NaN,17.034, NaN,NaN,NaN, NaN, NaN
20050419,003219,379772,30.302917,-123.937553,4.8,17.030,33.237,42.900,1120.82,0.0,0.727,16.395,16.364, NaN,24.154,   NaN,14.32,1019.45,68.84,14.66,16.9,17.1,14.5,15.1,354.4,354.2,9.9,10.4,NaN, NaN,14.1,322.6,323.6,1113870741,1113870741,1,9.8,001940,001941,329.4,30.302813,-123.937551,9.50,NaN,NaN,17.034, NaN,NaN,NaN, NaN, NaN
20050419,003249,379802,30.304052,-123.938271,5.1,17.027,33.246,42.908,1338.11,0.0,0.708,16.396,16.364, NaN,24.162,   NaN,14.27,1019.46,69.10,14.64,15.0,15.1,14.8,15.3,351.6,351.3,10.1,10.6,NaN, NaN,13.5,336.1,335.4,1113870771,1113870771,1,9.7,001970,001971,329.4,30.303963,-123.938266,9.57,NaN,NaN,17.031, NaN,NaN,NaN, NaN, NaN
20050419,003319,379832,30.305223,-123.939050,5.1,17.027,33.250,42.912,1884.77,0.0,0.708,16.399,16.368, NaN,24.165,   NaN,14.31,1019.52,69.53,14.67,17.4,17.0,15.1,15.7,354.4,353.3,10.5,11.1,NaN, NaN,11.2,347.1,337.1,1113870801,1113870801,1,10.2,002000,002001,328.7,30.305125,-123.939041,9.78,NaN,NaN,17.031, NaN,NaN,NaN, NaN, NaN
20050419,003349,379862,30.306300,-123.939773,4.9,17.029,33.252,42.917,2198.09,0.0,0.727,16.403,16.373, NaN,24.166,   NaN,14.35,1019.66,69.33,14.75,19.2,20.1,15.2,16.2,357.0,357.4,10.7,11.7,NaN, NaN,11.0,350.4,334.1,1113870830,1113870830,1,9.2,002029,002030,330.6,30.306207,-123.939765,9.39,NaN,NaN,17.033, NaN,NaN,NaN, NaN, NaN
20050419,003419,379892,30.307468,-123.940536,5.1,17.034,33.251,42.920,2286.16,0.0,0.708,16.407,16.375, NaN,24.164,   NaN,14.39,1019.62,69.27,14.75,18.4,19.6,14.9,16.0,356.2,356.9,10.5,11.6,NaN, NaN,13.5,333.7,332.9,1113870861,1113870861,1,9.7,002060,002061,330.0,30.307382,-123.940536,9.46,NaN,NaN,17.038, NaN,NaN,NaN, NaN, NaN
20050419,003450,379923,30.308627,-123.941335,5.1,17.038,33.251,42.924,2224.83,0.0,0.708,16.413,16.382, NaN,24.163,   NaN,14.43,1019.37,69.31,14.80,17.7,19.1,14.9,15.7,355.5,356.8,10.4,11.3,NaN, NaN,11.1,330.7,330.3,1113870891,1113870891,1,10.3,002090,002091,329.9,30.308528,-123.941336,10.13,NaN,NaN,17.042, NaN,NaN,NaN, NaN, NaN
20050419,003519,379952,30.309733,-123.942080,5.0,17.041,33.253,42.929,2285.23,0.0,0.708,16.419,16.387, NaN,24.164,   NaN,14.34,1019.48,68.69,14.73,17.9,20.8,14.6,15.6,356.5,359.5,10.1,11.3,NaN, NaN,10.6,331.1,329.8,1113870921,1113870921,1,10.2,002120,002121,329.4,30.309627,-123.942083,9.45,NaN,NaN,17.045, NaN,NaN,NaN, NaN, NaN
20050419,003549,379982,30.310825,-123.942850,4.9,17.044,33.253,42.932,2292.06,0.0,0.708,16.418,16.387, NaN,24.163,   NaN,14.39,1019.56,68.72,14.76,16.8,19.9,14.3,15.4,354.9,358.4,9.8,11.1,NaN, NaN,13.9,333.9,329.7,1113870951,1113870951,1,9.9,002150,002151,330.1,30.310738,-123.942848,9.19,NaN,NaN,17.048, NaN,NaN,NaN, NaN, NaN
20050419,003620,380013,30.312038,-123.943635,5.1,17.048,33.253,42.935,2017.99,0.0,0.727,16.411,16.379, NaN,24.163,   NaN,14.40,1019.40,68.58,14.75,15.9,17.5,14.5,15.2,353.6,355.3,9.8,10.7,NaN, NaN,15.3,327.2,329.6,1113870982,1113870982,1,10.1,002181,002182,329.2,30.311955,-123.943645,9.92,NaN,NaN,17.052, NaN,NaN,NaN, NaN, NaN